| time (UTC) | temp F | wind direction | speed knots | gust knots | rain 1hr in | rain 24hr in | rain mn in | humidity % | barometer mb |
| 20260901220446 | 92 | 20 | 0.0 | 0.0 | 0.00 | 0.00 | 0.00 | 45 | 1009.1 |
| 20260901215446 | 92 | 20 | 0.0 | 0.0 | 0.00 | 0.00 | 0.00 | 44 | 1009.3 |
| 20260901214445 | 93 | 20 | 0.0 | 1.7 | 0.00 | 0.00 | 0.00 | 44 | 1009.5 |
| 20260901213446 | 93 | 20 | 0.0 | 0.0 | 0.00 | 0.00 | 0.00 | 45 | 1009.5 |
| 20260901212446 | 94 | 20 | 0.0 | 1.7 | 0.00 | 0.00 | 0.00 | 46 | 1009.3 |
| 20260901211445 | 94 | 20 | 0.0 | 1.7 | 0.00 | 0.00 | 0.00 | 47 | 1009.2 |
| 20260901210449 | 95 | 20 | 0.0 | 2.6 | 0.00 | 0.00 | 0.00 | 45 | 1009.2 |
| 20260901205446 | 96 | 20 | 0.9 | 4.3 | 0.00 | 0.00 | 0.00 | 45 | 1009.3 |
| 20260901204449 | 97 | 20 | 0.0 | 2.6 | 0.00 | 0.00 | 0.00 | 42 | 1009.6 |
| 20260901203449 | 97 | 20 | 0.0 | 5.2 | 0.00 | 0.00 | 0.00 | 44 | 1009.6 |
| 20260901202446 | 97 | 34 | 0.0 | 3.5 | 0.00 | 0.00 | 0.00 | 45 | 1009.8 |
| 20260901201446 | 97 | 12 | 2.6 | 6.1 | 0.00 | 0.00 | 0.00 | 45 | 1010.0 |
| 20260901200445 | 95 | 22 | 1.7 | 2.6 | 0.00 | 0.00 | 0.00 | 47 | 1010.0 |
| 20260901195446 | 94 | 22 | 0.0 | 5.2 | 0.00 | 0.00 | 0.00 | 48 | 1010.2 |
| 20260901194446 | 94 | 17 | 2.6 | 3.5 | 0.00 | 0.00 | 0.00 | 48 | 1010.2 |
| 20260901193446 | 94 | 0 | 0.0 | 2.6 | 0.00 | 0.00 | 0.00 | 47 | 1010.2 |
| 20260901192445 | 94 | 300 | 0.9 | 2.6 | 0.00 | 0.00 | 0.00 | 48 | 1010.3 |
| 20260901191446 | 93 | 300 | 0.0 | 3.5 | 0.00 | 0.00 | 0.00 | 50 | 1010.3 |
| 20260901190445 | 93 | 9 | 2.6 | 5.2 | 0.00 | 0.00 | 0.00 | 51 | 1010.3 |
| 20260901185448 | 93 | 20 | 0.9 | 3.5 | 0.00 | 0.00 | 0.00 | 51 | 1010.7 |
| 20260901184445 | 93 | 325 | 0.9 | 3.5 | 0.00 | 0.00 | 0.00 | 52 | 1010.8 |
| 20260901183445 | 92 | 300 | 1.7 | 4.3 | 0.00 | 0.00 | 0.00 | 53 | 1010.8 |
| 20260901182449 | 92 | 17 | 0.0 | 2.6 | 0.00 | 0.00 | 0.00 | 55 | 1010.8 |
| 20260901181445 | 91 | 17 | 0.0 | 3.5 | 0.00 | 0.00 | 0.00 | 57 | 1011.0 |
| 20260901180446 | 90 | 17 | 0.0 | 4.3 | 0.00 | 0.00 | 0.00 | 59 | 1011.0 |
| 20260901175449 | 89 | 18 | 0.9 | 2.6 | 0.00 | 0.00 | 0.00 | 62 | 1011.3 |
| 20260901174445 | 89 | 18 | 0.9 | 3.5 | 0.00 | 0.00 | 0.00 | 63 | 1011.8 |
| 20260901173445 | 88 | 23 | 0.9 | 1.7 | 0.00 | 0.00 | 0.00 | 64 | 1011.8 |
| 20260901172445 | 88 | 26 | 0.0 | 2.6 | 0.00 | 0.00 | 0.00 | 65 | 1011.9 |
| 20260901171446 | 87 | 26 | 2.6 | 4.3 | 0.00 | 0.00 | 0.00 | 65 | 1012.2 |
| 20260901170446 | 87 | 26 | 1.7 | 4.3 | 0.00 | 0.00 | 0.00 | 67 | 1012.2 |
| 20260901165446 | 87 | 27 | 0.9 | 4.3 | 0.00 | 0.00 | 0.00 | 69 | 1012.2 |
| 20260901164445 | 86 | 27 | 0.0 | 0.9 | 0.00 | 0.00 | 0.00 | 72 | 1012.2 |
| 20260901163445 | 86 | 27 | 0.9 | 3.5 | 0.00 | 0.00 | 0.00 | 72 | 1012.2 |
| 20260901162446 | 86 | 317 | 0.9 | 2.6 | 0.00 | 0.00 | 0.00 | 73 | 1012.3 |
| 20260901161445 | 85 | 311 | 0.0 | 2.6 | 0.00 | 0.00 | 0.00 | 73 | 1012.3 |
| 20260901160445 | 85 | 313 | 0.0 | 3.5 | 0.00 | 0.00 | 0.00 | 75 | 1012.3 |
| 20260901155445 | 85 | 312 | 0.9 | 5.2 | 0.00 | 0.00 | 0.00 | 75 | 1012.2 |
| 20260901154446 | 84 | 355 | 0.0 | 3.5 | 0.00 | 0.00 | 0.00 | 75 | 1012.2 |
| 20260901153446 | 84 | 258 | 2.6 | 3.5 | 0.00 | 0.00 | 0.00 | 77 | 1012.2 |
| 20260901152445 | 84 | 257 | 0.0 | 2.6 | 0.00 | 0.00 | 0.00 | 78 | 1012.1 |
| 20260901151446 | 83 | 252 | 2.6 | 5.2 | 0.00 | 0.00 | 0.00 | 79 | 1012.3 |
| 20260901150445 | 83 | 146 | 0.9 | 3.5 | 0.00 | 0.00 | 0.00 | 79 | 1012.3 |
| 20260901145446 | 82 | 145 | 1.7 | 3.5 | 0.00 | 0.00 | 0.00 | 81 | 1012.3 |
| 20260901144446 | 82 | 144 | 0.0 | 3.5 | 0.00 | 0.00 | 0.00 | 82 | 1012.3 |
| 20260901143446 | 82 | 144 | 0.0 | 1.7 | 0.00 | 0.00 | 0.00 | 82 | 1012.3 |
| 20260901142445 | 81 | 145 | 0.0 | 0.9 | 0.00 | 0.00 | 0.00 | 83 | 1012.2 |
| 20260901141448 | 81 | 144 | 0.0 | 1.7 | 0.00 | 0.00 | 0.00 | 83 | 1012.2 |
| 20260901140449 | 81 | 144 | 0.9 | 3.5 | 0.00 | 0.00 | 0.00 | 84 | 1012.2 |
| 20260901135445 | 81 | 145 | 0.0 | 0.0 | 0.00 | 0.00 | 0.00 | 85 | 1012.3 |
| 20260901134445 | 79 | 144 | 0.0 | 0.0 | 0.00 | 0.00 | 0.00 | 85 | 1012.2 |
| 20260901133445 | 79 | 144 | 0.0 | 0.0 | 0.00 | 0.00 | 0.00 | 85 | 1012.2 |
| 20260901132446 | 79 | 144 | 0.0 | 0.0 | 0.00 | 0.00 | 0.00 | 85 | 1011.9 |
| 20260901131445 | 79 | 144 | 0.0 | 0.0 | 0.00 | 0.00 | 0.00 | 85 | 1011.7 |
| 20260901130448 | 79 | 144 | 0.0 | 0.0 | 0.00 | 0.00 | 0.00 | 85 | 1011.7 |
| 20260901125445 | 79 | 144 | 0.0 | 0.0 | 0.00 | 0.00 | 0.00 | 85 | 1011.5 |
| 20260901124445 | 79 | 144 | 0.0 | 0.0 | 0.00 | 0.00 | 0.00 | 85 | 1011.3 |
| 20260901123445 | 79 | 144 | 0.0 | 0.0 | 0.00 | 0.00 | 0.00 | 85 | 1011.3 |
| 20260901122445 | 79 | 144 | 0.0 | 0.0 | 0.00 | 0.00 | 0.00 | 85 | 1011.2 |
| 20260901121445 | 79 | 144 | 0.0 | 0.0 | 0.00 | 0.00 | 0.00 | 84 | 1010.8 |
| 20260901120445 | 79 | 144 | 0.0 | 0.0 | 0.00 | 0.00 | 0.00 | 84 | 1010.8 |
| 20260901115445 | 79 | 144 | 0.0 | 0.0 | 0.00 | 0.00 | 0.00 | 84 | 1010.7 |
| 20260901114445 | 79 | 144 | 0.0 | 0.0 | 0.00 | 0.00 | 0.00 | 84 | 1010.8 |
| 20260901113445 | 79 | 144 | 0.0 | 0.0 | 0.00 | 0.00 | 0.00 | 84 | 1010.8 |
| 20260901112445 | 80 | 144 | 0.0 | 0.0 | 0.00 | 0.00 | 0.00 | 84 | 1010.8 |
| 20260901111445 | 80 | 144 | 0.0 | 0.0 | 0.00 | 0.00 | 0.00 | 83 | 1010.8 |
| 20260901110445 | 80 | 145 | 0.0 | 0.0 | 0.00 | 0.00 | 0.00 | 83 | 1010.8 |
| 20260901105445 | 80 | 145 | 0.0 | 0.0 | 0.00 | 0.00 | 0.00 | 82 | 1010.8 |
| 20260901104445 | 80 | 144 | 0.0 | 0.0 | 0.00 | 0.00 | 0.00 | 82 | 1010.6 |
| 20260901103445 | 80 | 144 | 0.0 | 0.0 | 0.00 | 0.00 | 0.00 | 82 | 1010.6 |
| 20260901102448 | 80 | 144 | 0.0 | 0.0 | 0.00 | 0.00 | 0.00 | 82 | 1010.7 |
| 20260901101445 | 80 | 144 | 0.0 | 0.0 | 0.00 | 0.00 | 0.00 | 82 | 1010.7 |
| 20260901100445 | 80 | 144 | 0.0 | 0.0 | 0.00 | 0.00 | 0.00 | 81 | 1010.7 |
| 20260901095445 | 80 | 144 | 0.0 | 0.0 | 0.00 | 0.00 | 0.00 | 81 | 1010.8 |
| 20260901094448 | 81 | 144 | 0.0 | 0.0 | 0.00 | 0.00 | 0.00 | 81 | 1010.7 |
| 20260901093448 | 81 | 144 | 0.0 | 0.0 | 0.00 | 0.00 | 0.00 | 80 | 1010.7 |
| 20260901092445 | 81 | 144 | 0.0 | 0.0 | 0.00 | 0.00 | 0.00 | 80 | 1010.8 |
| 20260901091445 | 81 | 144 | 0.0 | 0.0 | 0.00 | 0.00 | 0.00 | 80 | 1010.7 |
| 20260901090445 | 81 | 144 | 0.0 | 0.0 | 0.00 | 0.00 | 0.00 | 80 | 1010.7 |
| 20260901085445 | 81 | 144 | 0.0 | 0.0 | 0.00 | 0.00 | 0.00 | 79 | 1010.8 |
| 20260901084448 | 81 | 144 | 0.0 | 0.0 | 0.00 | 0.00 | 0.00 | 79 | 1011.0 |
| 20260901083445 | 82 | 144 | 0.0 | 0.0 | 0.00 | 0.00 | 0.00 | 79 | 1011.0 |
| 20260901082445 | 82 | 144 | 0.0 | 0.0 | 0.00 | 0.00 | 0.00 | 79 | 1011.2 |
| 20260901081445 | 82 | 144 | 0.0 | 0.0 | 0.00 | 0.00 | 0.00 | 79 | 1011.2 |
| 20260901080444 | 82 | 144 | 0.0 | 0.0 | 0.00 | 0.00 | 0.00 | 79 | 1011.2 |
| 20260901075448 | 82 | 144 | 0.0 | 0.0 | 0.00 | 0.00 | 0.00 | 79 | 1011.3 |
| 20260901074445 | 82 | 144 | 0.0 | 0.0 | 0.00 | 0.00 | 0.00 | 78 | 1011.3 |
| 20260901073445 | 82 | 144 | 0.0 | 0.0 | 0.00 | 0.00 | 0.00 | 78 | 1011.3 |
| 20260901072445 | 82 | 144 | 0.0 | 0.0 | 0.00 | 0.00 | 0.00 | 78 | 1011.3 |
| 20260901071445 | 82 | 144 | 0.0 | 0.0 | 0.00 | 0.00 | 0.00 | 77 | 1011.3 |
| 20260901070445 | 82 | 144 | 0.0 | 0.0 | 0.00 | 0.00 | 0.00 | 77 | 1011.3 |
| 20260901065444 | 82 | 144 | 0.0 | 0.0 | 0.00 | 0.00 | 0.00 | 77 | 1011.3 |
| 20260901064448 | 82 | 144 | 0.0 | 0.0 | 0.00 | 0.00 | 0.00 | 76 | 1011.4 |
| 20260901063444 | 82 | 144 | 0.0 | 0.0 | 0.00 | 0.00 | 0.00 | 75 | 1011.4 |
| 20260901062444 | 83 | 144 | 0.0 | 0.0 | 0.00 | 0.00 | 0.00 | 75 | 1011.5 |
| 20260901061448 | 83 | 144 | 0.0 | 0.0 | 0.00 | 0.00 | 0.00 | 75 | 1011.7 |
| 20260901060444 | 83 | 144 | 0.0 | 0.0 | 0.00 | 0.00 | 0.00 | 74 | 1011.7 |
| 20260901055448 | 83 | 144 | 0.0 | 0.0 | 0.00 | 0.00 | 0.00 | 74 | 1011.3 |
| 20260901054444 | 83 | 144 | 0.0 | 0.9 | 0.00 | 0.00 | 0.00 | 75 | 1011.3 |
| 20260901053445 | 83 | 144 | 0.0 | 0.9 | 0.00 | 0.00 | 0.00 | 74 | 1011.3 |
| 20260901052445 | 84 | 144 | 0.0 | 0.0 | 0.00 | 0.00 | 0.00 | 73 | 1011.3 |
| 20260901051444 | 84 | 144 | 0.0 | 0.0 | 0.00 | 0.00 | 0.00 | 73 | 1011.2 |
| 20260901050445 | 84 | 144 | 0.0 | 0.0 | 0.00 | 0.00 | 0.00 | 73 | 1011.0 |
| 20260901045444 | 84 | 144 | 0.0 | 0.0 | 0.00 | 0.00 | 0.00 | 73 | 1011.0 |
| 20260901044444 | 84 | 144 | 0.0 | 0.0 | 0.00 | 0.00 | 0.00 | 72 | 1010.8 |
| 20260901043445 | 84 | 144 | 0.0 | 0.0 | 0.00 | 0.00 | 0.00 | 72 | 1010.8 |
| 20260901042444 | 85 | 144 | 0.0 | 0.9 | 0.00 | 0.00 | 0.00 | 72 | 1011.0 |
| 20260901041444 | 85 | 144 | 0.0 | 0.9 | 0.00 | 0.00 | 0.00 | 72 | 1011.0 |
| 20260901040447 | 85 | 144 | 0.0 | 0.0 | 0.00 | 0.00 | 0.00 | 71 | 1011.0 |
| 20260901035448 | 85 | 144 | 0.0 | 0.9 | 0.00 | 0.00 | 0.00 | 71 | 1010.8 |
| 20260901034447 | 85 | 144 | 0.0 | 0.0 | 0.00 | 0.00 | 0.00 | 70 | 1010.7 |
| 20260901033448 | 86 | 144 | 0.0 | 1.7 | 0.00 | 0.00 | 0.00 | 69 | 1010.7 |
| 20260901032444 | 86 | 144 | 0.0 | 0.0 | 0.00 | 0.00 | 0.00 | 68 | 1010.6 |
| 20260901031444 | 86 | 144 | 0.0 | 0.0 | 0.00 | 0.00 | 0.00 | 67 | 1010.3 |
| 20260901030444 | 86 | 144 | 0.0 | 0.0 | 0.00 | 0.00 | 0.00 | 67 | 1010.3 |
| 20260901025445 | 86 | 144 | 0.0 | 0.9 | 0.00 | 0.00 | 0.00 | 66 | 1010.3 |
| 20260901024444 | 87 | 144 | 0.0 | 0.0 | 0.00 | 0.00 | 0.00 | 65 | 1010.1 |
| 20260901023445 | 87 | 144 | 0.0 | 0.0 | 0.00 | 0.00 | 0.00 | 63 | 1010.1 |
| 20260901022444 | 87 | 144 | 0.0 | 0.0 | 0.00 | 0.00 | 0.00 | 62 | 1009.8 |
| 20260901021444 | 87 | 144 | 0.0 | 0.0 | 0.00 | 0.00 | 0.00 | 61 | 1009.7 |
| 20260901020445 | 88 | 144 | 0.0 | 1.7 | 0.00 | 0.00 | 0.00 | 60 | 1009.7 |
| 20260901015444 | 88 | 144 | 2.6 | 3.5 | 0.00 | 0.00 | 0.00 | 59 | 1009.7 |
| 20260901014447 | 88 | 144 | 0.9 | 3.5 | 0.00 | 0.00 | 0.00 | 59 | 1009.7 |
| 20260901013447 | 89 | 144 | 2.6 | 2.6 | 0.00 | 0.00 | 0.00 | 59 | 1009.7 |
| 20260901012445 | 90 | 144 | 0.0 | 2.6 | 0.00 | 0.00 | 0.00 | 58 | 1009.8 |
| 20260901011445 | 90 | 144 | 1.7 | 2.6 | 0.00 | 0.00 | 0.00 | 57 | 1009.7 |
| 20260901010447 | 90 | 144 | 1.7 | 2.6 | 0.00 | 0.00 | 0.00 | 55 | 1009.7 |
| 20260901005445 | 91 | 145 | 0.0 | 0.0 | 0.00 | 0.00 | 0.00 | 53 | 1009.6 |
| 20260901004445 | 91 | 144 | 0.0 | 0.9 | 0.00 | 0.00 | 0.00 | 54 | 1009.7 |
| 20260901003444 | 91 | 144 | 0.0 | 0.9 | 0.00 | 0.00 | 0.00 | 53 | 1009.7 |
| 20260901002445 | 91 | 144 | 0.0 | 0.9 | 0.00 | 0.00 | 0.00 | 52 | 1009.7 |
| 20260901001447 | 92 | 144 | 0.0 | 1.7 | 0.00 | 0.00 | 0.00 | 51 | 1009.7 |
| 20260901000444 | 92 | 144 | 0.0 | 1.7 | 0.00 | 0.00 | 0.00 | 50 | 1009.7 |
| 20260831235444 | 93 | 144 | 0.9 | 2.6 | 0.00 | 0.00 | 0.00 | 48 | 1009.8 |
| 20260831234444 | 93 | 145 | 0.9 | 2.6 | 0.00 | 0.00 | 0.00 | 47 | 1009.7 |
| 20260831233444 | 94 | 144 | 0.0 | 0.9 | 0.00 | 0.00 | 0.00 | 45 | 1009.8 |
| 20260831232444 | 94 | 144 | 0.9 | 4.3 | 0.00 | 0.00 | 0.00 | 44 | 1009.7 |
| 20260831231445 | 95 | 143 | 0.9 | 1.7 | 0.00 | 0.00 | 0.00 | 40 | 1009.6 |
| 20260831230444 | 95 | 143 | 0.0 | 0.9 | 0.00 | 0.00 | 0.00 | 40 | 1009.6 |
| 20260831225445 | 94 | 143 | 0.0 | 1.7 | 0.00 | 0.00 | 0.00 | 42 | 1009.7 |
| 20260831224444 | 94 | 143 | 0.0 | 0.9 | 0.00 | 0.00 | 0.00 | 43 | 1009.8 |
| 20260831223445 | 94 | 143 | 0.0 | 3.5 | 0.00 | 0.00 | 0.00 | 42 | 1009.8 |
| 20260831222444 | 94 | 143 | 0.0 | 1.7 | 0.00 | 0.00 | 0.00 | 42 | 1009.8 |
| 20260831221448 | 94 | 144 | 1.7 | 1.7 | 0.00 | 0.00 | 0.00 | 42 | 1009.8 |